Miscellaneous Local Product
Issued by NWS Hastings, NE

Home | Current Version | Previous Version | Graphics & Text | Print | Product List | Glossary On
Versions: 1 2 3 4 5 6 7 8 9 10 11 12 13 14 15 16 17 18 19 20 21 22 23 24 25 26 27 28 29 30 31 32 33 34 35 36 37 38 39 40 41 42 43 44 45 46 47 48 49 50
000
AXUS43 KGID 230502
MISGRI

GID CWA HOURLY WEATHER ROUNDUP
NATIONAL WEATHER SERVICE HASTINGS NE
1200 AM CDT WED JUL 23 2014

NOTE: "FAIR" INDICATES FEW OR NO CLOUDS BELOW 12,000 FEET WITH NO
SIGNIFICANT WEATHER AND/OR OBSTRUCTIONS TO VISIBILITY.

...SOUTH CENTRAL NEBRASKA...

CITY           SKY/WX    TMP DP  RH WIND       PRES   REMARKS
GRAND ISLAND   CLEAR     70  67  90 NE5       30.22R
HASTINGS       CLEAR     72  66  81 NE7       30.22R
KEARNEY        CLEAR     72  66  83 NE7       30.23R
ORD            CLEAR     67  65  93 N5        30.24R
YORK           CLEAR     72  70  94 N8        30.20R
AURORA         CLEAR     71  70  95 NE6       30.21R
LEXINGTON      PTCLDY    72  67  84 E9        30.24R
HOLDREGE       CLEAR     72  68  87 NE12      30.22R
HEBRON         CLEAR     76  69  78 NE5       30.17R

...NEBRASKA PANHANDLE...

CITY           SKY/WX    TMP DP  RH WIND       PRES   REMARKS
CHADRON        MOCLDY    70  64  81 SE13      30.25F
ALLIANCE       PTCLDY    75  58  55 E16G35    30.30R
SCOTTSBLUFF    CLEAR     75  61  61 E15       30.25R
SIDNEY         CLEAR     77  59  53 SE16G23   30.31R

...WESTERN AND NORTH CENTRAL NEBRASKA...

CITY           SKY/WX    TMP DP  RH WIND       PRES   REMARKS
VALENTINE      CLOUDY    73  62  68 E5        30.31R
AINSWORTH      MOCLDY    67  64  89 NE5       30.31R FOG
ONEILL         MOCLDY    67  61  79 N5        30.27R
BROKEN BOW     CLEAR     69  65  86 NE6       30.26R
IMPERIAL       CLEAR     74  62  66 E8        30.27R
NORTH PLATTE   PTCLDY    71  64  78 E8        30.27R
MCCOOK         PTCLDY    76  67  73 E14       30.22R

...EASTERN NEBRASKA...

CITY           SKY/WX    TMP DP  RH WIND       PRES   REMARKS
NORFOLK        CLEAR     71  62  73 N5        30.22R
SO SIOUX CITY  CLEAR     73  59  61 N9        30.20R
TEKAMAH        CLEAR     68  64  87 N6        30.18R
COLUMBUS       CLEAR     70  63  78 NE8       30.21R
ALBION         CLEAR     70  64  83 N5        30.23R
OMAHA EPPLEY   PTCLDY    73  66  78 N8        30.16R
OFFUTT AFB     CLEAR     75  69  81 N3        30.16R
MILLARD        CLEAR     77  66  69 NE3       30.17R
LINCOLN        CLEAR     74  67  78 N10       30.17R
NEBRASKA CITY  CLEAR     73  69  87 NE10      30.15R
BEATRICE       CLEAR     72  68  88 NE6       30.16R
FALLS CITY     CLEAR     77  71  82 NE9       30.11R

...NORTHERN KANSAS...

CITY           SKY/WX    TMP DP  RH WIND       PRES   REMARKS
GOODLAND       CLEAR     74  68  81 E9        30.25R
HILL CITY      CLEAR     80  69  69 E15       30.18R
NORTON         CLEAR     75  63  64 NE12      30.20R
PHILLIPSBURG   CLEAR     81  66  61 NE8       30.17R
SMITH CENTER   CLEAR     77  68  73 NE17      30.17R
HAYS           CLEAR     57 N/A N/A N5        30.15R
RUSSELL        MOCLDY    83  74  74 NE9       30.13R
CONCORDIA      CLEAR     79  69  71 NE9       30.14R
SALINA         CLEAR     89  73  59 NE9       30.09R HX  97
TOPEKA         CLEAR     84  79  85 N12       30.08R HX  96



USA.gov is the U.S. government's official web portal to all federal, state and local government web resources and services.